Stanley, ND

4:34 PM CST on February 21, 2017 (GMT -0600)
Stanley

Weather History for K08D - September, 2012

Change the Weather History Date:

Tuesday, September 4, 2012

  Actual Average (KMIB) Record (KMIB)
Temperature  
Mean Temperature 58 °F -  
Max Temperature 73 °F 74 °F 100 °F (1998)
Min Temperature 42 °F 49 °F 39 °F (2011)
Degree Days  
Heating Degree Days 8    
Growing Degree Days 8 (Base 50)    
Moisture  
Dew Point 38 °F    
Average Humidity 51    
Maximum Humidity 87    
Minimum Humidity 25    
Precipitation  
Precipitation 0.00 in - - ()
Sea Level Pressure  
Sea Level Pressure 29.92 in    
Wind  
Wind Speed 6 mph (NW)    
Max Wind Speed 21 mph    
Max Gust Speed 30 mph    
Visibility 10 miles    
Events Rain    
Averages and records for this station are not official NWS values.
T = Trace of Precipitation, MM = Missing Value Source: NWS Daily Summary

Daily Weather History Graph

Daily Weather History Graph

Search for Another Location

Airport or City:

Trip Planner

Search our weather history database for the weather conditions in past years. The results will help you decide how hot, cold, wet, or windy it might be!

Date:

Astronomy

Sep. 04, 2012 Rise Set
Actual Time 7:12 AM CDT 8:23 PM CDT
Civil Twilight 6:39 AM CDT 8:55 PM CDT
Nautical Twilight 6:01 AM CDT 9:34 PM CDT
Astronomical Twilight 5:19 AM CDT 10:15 PM CDT
Moon 9:51 PM CDT (9/4) 11:46 AM CDT (9/4)
Length of Visible Light 14h 15m
Length of Day
13h 11m
Waning Gibbous, 83% of the Moon is Illuminated
Sep 4
Waning Gibbous
Sep 8
Last Quarter
Sep 15
New
Sep 22
First Quarter
Sep 29
Full

Hourly Weather History & Observations

Time (CDT) Temp. Windchill Dew Point Humidity Pressure Visibility Wind Dir Wind Speed Gust Speed Precip Events Conditions
12:15 AM 50.0 °F - 39.2 °F 66% 29.91 in 10.0 mi Calm Calm - N/A   Clear
12:35 AM 48.2 °F - 39.2 °F 71% 29.91 in 10.0 mi North 3.5 mph - N/A   Clear
12:55 AM 50.0 °F - 39.2 °F 66% 29.90 in 10.0 mi North 5.8 mph - N/A   Clear
1:15 AM 51.8 °F - 37.4 °F 58% 29.90 in 10.0 mi North 4.6 mph - N/A   Clear
1:35 AM 50.0 °F - 39.2 °F 66% 29.90 in 10.0 mi North 5.8 mph - N/A   Clear
1:55 AM 50.0 °F - 41.0 °F 71% 29.90 in 10.0 mi North 6.9 mph - N/A   Clear
2:15 AM 50.0 °F - 39.2 °F 66% 29.90 in 10.0 mi North 4.6 mph - N/A   Clear
2:35 AM 48.2 °F - 39.2 °F 71% 29.89 in 10.0 mi NNE 4.6 mph - N/A   Clear
2:55 AM 50.0 °F - 39.2 °F 66% 29.88 in 10.0 mi Calm Calm - N/A   Clear
3:15 AM 44.6 °F 43.1 °F 39.2 °F 81% 29.89 in 10.0 mi West 3.5 mph - N/A   Clear
3:35 AM 46.4 °F - 39.2 °F 76% 29.88 in 10.0 mi Calm Calm - N/A   Clear
3:55 AM 48.2 °F - 39.2 °F 71% 29.88 in 10.0 mi NW 5.8 mph - N/A   Clear
4:15 AM 48.2 °F - 39.2 °F 71% 29.88 in 10.0 mi Calm Calm - N/A   Clear
4:55 AM 44.6 °F 42.2 °F 39.2 °F 81% 29.88 in 10.0 mi SW 4.6 mph - N/A   Clear
5:15 AM 46.4 °F - 39.2 °F 76% 29.89 in 10.0 mi Calm Calm - N/A   Clear
5:35 AM 46.4 °F - 39.2 °F 76% 29.88 in 10.0 mi Calm Calm - N/A   Clear
5:55 AM 46.4 °F - 41.0 °F 81% 29.89 in 10.0 mi Calm Calm - N/A   Clear
6:15 AM 42.8 °F 41.1 °F 39.2 °F 87% 29.89 in 10.0 mi WSW 3.5 mph - N/A   Clear
6:35 AM 44.6 °F - 39.2 °F 81% 29.89 in 10.0 mi Calm Calm - N/A   Clear
6:55 AM 44.6 °F 42.2 °F 39.2 °F 81% 29.89 in 10.0 mi West 4.6 mph - N/A   Clear
7:15 AM 48.2 °F - 41.0 °F 76% 29.89 in 10.0 mi West 4.6 mph - N/A   Clear
7:35 AM 48.2 °F - 41.0 °F 76% 29.89 in 10.0 mi WNW 3.5 mph - N/A   Clear
7:55 AM 53.6 °F - 41.0 °F 62% 29.89 in 10.0 mi WNW 8.1 mph - N/A   Clear
8:15 AM 55.4 °F - 42.8 °F 63% 29.89 in 10.0 mi WNW 8.1 mph - N/A   Clear
8:35 AM 57.2 °F - 41.0 °F 55% 29.89 in 10.0 mi NW 6.9 mph - N/A   Clear
8:55 AM 57.2 °F - 41.0 °F 55% 29.89 in 10.0 mi NW 6.9 mph - N/A   Clear
9:15 AM 59.0 °F - 41.0 °F 51% 29.89 in 10.0 mi NW 9.2 mph - N/A   Clear
9:35 AM 60.8 °F - 41.0 °F 48% 29.90 in 10.0 mi NW 11.5 mph 16.1 mph N/A   Clear
9:55 AM 62.6 °F - 39.2 °F 42% 29.89 in 10.0 mi NNW 12.7 mph 16.1 mph N/A   Clear
10:15 AM 60.8 °F - 41.0 °F 48% 29.90 in 10.0 mi NW 8.1 mph 17.3 mph N/A   Clear
10:35 AM 62.6 °F - 41.0 °F 45% 29.91 in 10.0 mi NW 9.2 mph - N/A   Clear
10:55 AM 64.4 °F - 41.0 °F 42% 29.91 in 10.0 mi NNW 9.2 mph - N/A   Clear
11:15 AM 64.4 °F - 41.0 °F 42% 29.92 in 10.0 mi WNW 4.6 mph - N/A   Clear
11:35 AM 66.2 °F - 39.2 °F 37% 29.92 in 10.0 mi North 10.4 mph - N/A   Clear
11:55 AM 66.2 °F - 37.4 °F 35% 29.92 in 10.0 mi North 10.4 mph - N/A   Clear
12:15 PM 66.2 °F - 39.2 °F 37% 29.92 in 10.0 mi North 8.1 mph - N/A   Clear
12:35 PM 68.0 °F - 41.0 °F 37% 29.92 in 10.0 mi NNE 9.2 mph - N/A   Clear
12:55 PM 69.8 °F - 39.2 °F 33% 29.91 in 10.0 mi North 11.5 mph 16.1 mph N/A   Clear
1:15 PM 69.8 °F - 37.4 °F 31% 29.91 in 10.0 mi NNW 11.5 mph - N/A   Clear
1:35 PM 71.6 °F - 35.6 °F 27% 29.91 in 10.0 mi North 8.1 mph 16.1 mph N/A   Clear
1:55 PM 73.4 °F - 35.6 °F 25% 29.90 in 10.0 mi NNW 9.2 mph - N/A   Clear
2:15 PM 73.4 °F - 35.6 °F 25% 29.90 in 10.0 mi WNW 9.2 mph - N/A   Clear
2:35 PM 73.4 °F - 35.6 °F 25% 29.90 in 10.0 mi NNW 13.8 mph 21.9 mph N/A   Clear
2:55 PM 73.4 °F - 35.6 °F 25% 29.90 in 10.0 mi NW 11.5 mph 17.3 mph N/A   Clear
3:15 PM 73.4 °F - 35.6 °F 25% 29.90 in 10.0 mi NW 13.8 mph - N/A   Clear
3:35 PM 71.6 °F - 37.4 °F 29% 29.90 in 10.0 mi NW 9.2 mph 17.3 mph N/A   Clear
3:55 PM 71.6 °F - 37.4 °F 29% 29.91 in 10.0 mi NW 10.4 mph 20.7 mph N/A   Clear
4:15 PM 71.6 °F - 37.4 °F 29% 29.91 in 10.0 mi NW 13.8 mph 18.4 mph N/A   Clear
4:35 PM 71.6 °F - 37.4 °F 29% 29.92 in 10.0 mi West 10.4 mph 20.7 mph N/A   Clear
5:15 PM 71.6 °F - 37.4 °F 29% 29.91 in 10.0 mi NW 12.7 mph 18.4 mph N/A   Clear
5:35 PM 71.6 °F - 37.4 °F 29% 29.92 in 10.0 mi NW 15.0 mph 21.9 mph N/A   Clear
5:55 PM 68.0 °F - 37.4 °F 33% 29.92 in 10.0 mi NNW 13.8 mph 21.9 mph N/A   Clear
6:15 PM 71.6 °F - 37.4 °F 29% 29.93 in 10.0 mi NW 12.7 mph 26.5 mph N/A   Partly Cloudy
6:35 PM 68.0 °F - 35.6 °F 30% 29.94 in 10.0 mi NW 13.8 mph 24.2 mph N/A   Scattered Clouds
6:55 PM 68.0 °F - 33.8 °F 28% 29.95 in 10.0 mi NW 13.8 mph 25.3 mph N/A   Partly Cloudy
7:15 PM 66.2 °F - 33.8 °F 30% 29.94 in 10.0 mi NW 13.8 mph 21.9 mph N/A   Partly Cloudy
7:35 PM 66.2 °F - 33.8 °F 30% 29.95 in 10.0 mi NW 20.7 mph 28.8 mph N/A   Clear
7:55 PM 64.4 °F - 32.0 °F 30% 29.95 in 10.0 mi NW 15.0 mph 24.2 mph N/A   Clear
8:15 PM 62.6 °F - 32.0 °F 32% 29.96 in 10.0 mi NW 19.6 mph 29.9 mph N/A   Mostly Cloudy
8:35 PM 60.8 °F - 35.6 °F 39% 29.97 in 10.0 mi WNW 17.3 mph 28.8 mph N/A   Mostly Cloudy
8:55 PM 57.2 °F - 39.2 °F 51% 29.98 in 10.0 mi WNW 16.1 mph 25.3 mph N/A Rain Light Rain
9:15 PM 57.2 °F - 37.4 °F 48% 29.99 in 10.0 mi WNW 15.0 mph 21.9 mph N/A   Overcast
9:35 PM 57.2 °F - 37.4 °F 48% 29.98 in 10.0 mi NW 9.2 mph 17.3 mph N/A   Overcast
9:55 PM 55.4 °F - 39.2 °F 54% 29.98 in 10.0 mi WNW 3.5 mph - N/A   Overcast
10:15 PM 53.6 °F - 39.2 °F 58% 29.97 in 10.0 mi West 5.8 mph - N/A   Overcast
10:35 PM 48.2 °F - 37.4 °F 66% 29.98 in 10.0 mi West 6.9 mph - N/A   Partly Cloudy
10:55 PM 50.0 °F - 39.2 °F 66% 29.98 in 10.0 mi West 8.1 mph - N/A   Clear
11:15 PM 50.0 °F - 39.2 °F 66% 29.98 in 10.0 mi West 8.1 mph - N/A   Unknown
11:35 PM 50.0 °F - 39.2 °F 66% 29.98 in 10.0 mi West 6.9 mph - N/A   Unknown
11:55 PM 50.0 °F - 39.2 °F 66% 29.98 in 10.0 mi West 9.2 mph - N/A   Unknown